This demonstration page uses our WeatherBlox Daily Observations layout. Learn more.

Left ArrowRight Arrow

41.55636, -103.73856

Hourly Observations for March 6, 2021

Temp ( °F °C ) Dew Point ( °F °C ) Humidity (%) Winds ( mph kmh ) Pressure ( in mb ) Visibility ( mi km ) Precip ( " mm )
12:58 am 00:58 Clear 38 3.2 17 -8.4 43 43 SW 13 20 30.14 1021 10 16.0934 0 0
1:58 am 01:58 Clear 37 2.7 18 -8 46 46 SW 14 22 30.12 1020 10 16.0934 0 0
2:58 am 02:58 Clear 35 1.9 17 -8.2 48 48 SW 16 26 30.1 1019 10 16.0934 0 0
3:58 am 03:58 Clear 35 1.6 17 -8.2 49 49 SW 16 26 30.09 1019 10 16.0934 0 0
4:58 am 04:58 Clear 36 2.2 18 -8 47 47 SW 16 26 30.09 1019 10 16.0934 0 0
5:58 am 05:58 Clear 36 2 17 -8.2 47 47 SW 18 30 30.14 1021 10 16.0934 0 0
6:58 am 06:58 Sunny 38 3.6 18 -8 43 43 SW 15 24 30.14 1021 10 16.0934 0 0
7:58 am 07:58 Sunny 45 7.4 19 -7.5 34 34 SW 9 15 30.13 1020 10 16.0934 0 0
8:58 am 08:58 Sunny 51 10.8 15 -9.2 24 24 SW 12 19 30.09 1019 10 16.0934 0 0
9:58 am 09:58 Sunny 56 13.6 13 -10.5 18 18 SSW 16 26 30.02 1017 10 16.0934 0 0
11:58 am 11:58 Sunny 61 16.1 13 -10.8 15 15 S 14 22 29.94 1014 10 16.0934 0 0
12:58 pm 12:58 Sunny 63 17.3 11 -11.9 13 13 S 14 22 29.9 1012 10 16.0934 0 0
1:58 pm 13:58 Sunny 64 18 8 -13.1 11 11 S 17 28 29.86 1011 10 16.0934 0 0
2:58 pm 14:58 Sunny 64 17.5 10 -12 12 12 S 15 24 29.84 1011 10 16.0934 0 0
3:58 pm 15:58 Sunny 63 17.1 10 -12.4 12 12 S 17 28 29.84 1011 10 16.0934 0 0
4:58 pm 16:58 Sunny 59 15.1 6 -14.6 12 12 S 15 24 29.84 1011 10 16.0934 0 0
5:58 pm 17:58 Clear 49 9.2 9 -12.7 20 20 SSW 15 24 29.89 1012 10 16.0934 0 0
6:58 pm 18:58 Clear 47 8.2 12 -11.3 24 24 SW 14 22 29.87 1011 10 16.0934 0 0
7:58 pm 19:58 Clear 47 8.3 13 -10.5 25 25 SW 17 28 29.85 1011 10 16.0934 0 0
8:58 pm 20:58 Clear 44 6.4 14 -10 30 30 SW 18 30 29.85 1011 10 16.0934 0 0
9:58 pm 21:58 Clear 37 3 15 -9.4 40 40 W 13 20 29.87 1011 10 16.0934 0 0
10:58 pm 22:58 Clear 39 3.9 15 -9.6 37 37 W 15 24 29.85 1011 10 16.0934 0 0
11:58 pm 23:58 Clear 39 3.9 15 -9.7 37 37 WNW 8 13 29.84 1011 10 16.0934 0 0

Powered by AerisWeather